Location: Shenandoah County Park
(38.9356°N, 78.4524°W)
Time: 02:08:13
(UTC-05:00)

Envisat - Pass Details

Date: 30 November 2021
Orbit: 764 x 766 km, 98.2° (Epoch: 23 January)

Event Time Altitude Azimuth Distance (km) Brightness Sun altitude
Rises 06:22:34 0° 357° (N) 3,240 6.0 -9.8°
Reaches altitude 10° 06:25:21 10° 342° (NNW) 2,309 5.1 -9.3°
Maximum altitude 06:29:07 21° 294° (WNW) 1,654 4.1 -8.6°
Drops below altitude 10° 06:32:52 10° 246° (WSW) 2,298 5.1 -7.9°
Sets 06:35:38 0° 231° (SW) 3,219 5.9 -7.4°
